Weather History for Red Bluff, CA

Change the Weather History Date:

Monday, January 21, 2013

  Actual Average Record
Temperature  
Mean Temperature 46 °F -  
Max Temperature 63 °F 58 °F 75 °F (1980)
Min Temperature 30 °F 38 °F 21 °F (1962)
Degree Days  
Heating Degree Days 18    
Moisture  
Dew Point 26 °F    
Average Humidity 53    
Maximum Humidity 79    
Minimum Humidity 15    
Precipitation  
Precipitation 0.00 in - - ()
Sea Level Pressure  
Sea Level Pressure 30.18 in    
Wind  
Wind Speed 7 mph (NW)    
Max Wind Speed 9 mph    
Max Gust Speed -    
Visibility 10 miles    
Events      
Averages and records for this station are not official NWS values.
T = Trace of Precipitation, MM = Missing Value Source: NWS Daily Summary

Daily Weather History Graph

Daily Weather History Graph

Search for Another Location

Airport:

Trip Planner

Search our weather history database for the weather conditions in past years. The results will help you decide how hot, cold, wet, or windy it might be!

Date:

Astronomy

Jan. 21, 2013 Rise Set
Actual Time 7:26 AM PST 5:15 PM PST
Civil Twilight 6:56 AM PST 5:44 PM PST
Nautical Twilight 6:23 AM PST 6:17 PM PST
Astronomical Twilight 5:51 AM PST 6:49 PM PST
Moon 12:58 PM PST 2:59 AM PST
Length of Visible Light 10h 47m
Length of Day
9h 49m
Waxing Gibbous, 76% of the Moon is Illuminated
Jan 21
Waxing Gibbous
Jan 26
Full
Feb 3
Last Quarter
Feb 9
New
Feb 17
First Quarter

Hourly Weather History & Observations

Time (PST) Temp. Windchill Dew Point Humidity Pressure Visibility Wind Dir Wind Speed Gust Speed Precip Events Conditions
12:54 AM 34.0 °F 28.0 °F 26.1 °F 73% 30.21 in 10.0 mi NW 6.9 mph - N/A   Clear
1:54 AM 30.9 °F 24.3 °F 25.0 °F 79% 30.22 in 10.0 mi WNW 6.9 mph - N/A   Clear
2:54 AM 33.1 °F 26.1 °F 26.1 °F 75% 30.22 in 10.0 mi NW 8.1 mph - N/A   Clear
3:54 AM 32.0 °F 26.4 °F 24.1 °F 73% 30.20 in 10.0 mi NNW 5.8 mph - N/A   Clear
4:54 AM 30.9 °F 27.5 °F 23.0 °F 72% 30.21 in 10.0 mi NNW 3.5 mph - N/A   Clear
5:54 AM 32.0 °F 25.6 °F 23.0 °F 69% 30.19 in 10.0 mi NW 6.9 mph - N/A   Clear
6:54 AM 33.1 °F 26.9 °F 23.0 °F 66% 30.19 in 10.0 mi NNW 6.9 mph - N/A   Clear
7:54 AM 33.1 °F 27.7 °F 23.0 °F 66% 30.19 in 10.0 mi North 5.8 mph - N/A   Clear
8:54 AM 39.0 °F 33.4 °F 26.1 °F 60% 30.20 in 10.0 mi NNW 8.1 mph - N/A   Clear
9:54 AM 48.9 °F - 26.1 °F 41% 30.19 in 10.0 mi North 9.2 mph - N/A   Clear
10:54 AM 55.0 °F - 23.0 °F 29% 30.19 in 10.0 mi North 9.2 mph - N/A   Clear
11:54 AM 59.0 °F - 25.0 °F 27% 30.16 in 10.0 mi North 4.6 mph - N/A   Clear
12:54 PM 63.0 °F - 23.0 °F 22% 30.14 in 10.0 mi ENE 5.8 mph - N/A   Clear
1:54 PM 62.1 °F - 21.0 °F 21% 30.13 in 10.0 mi SSE 6.9 mph - N/A   Clear
2:54 PM 62.1 °F - 25.0 °F 24% 30.13 in 10.0 mi South 6.9 mph - N/A   Clear
3:54 PM 63.0 °F - 27.0 °F 26% 30.14 in 10.0 mi SSE 9.2 mph - N/A   Clear
4:54 PM 57.0 °F - 30.9 °F 37% 30.15 in 10.0 mi SSE 8.1 mph - N/A   Clear
5:54 PM 48.9 °F - 30.9 °F 50% 30.16 in 10.0 mi South 4.6 mph - N/A   Clear
6:54 PM 44.1 °F 42.5 °F 32.0 °F 63% 30.16 in 10.0 mi WNW 3.5 mph - N/A   Clear
7:54 PM 41.0 °F - 30.9 °F 67% 30.17 in 10.0 mi Calm Calm - N/A   Clear
8:54 PM 39.9 °F 35.8 °F 30.0 °F 68% 30.17 in 10.0 mi NW 5.8 mph - N/A   Clear
9:54 PM 39.0 °F 33.4 °F 30.0 °F 70% 30.18 in 10.0 mi WNW 8.1 mph - N/A   Clear
10:54 PM 37.0 °F 33.3 °F 28.9 °F 73% 30.19 in 10.0 mi NW 4.6 mph - N/A   Clear
11:54 PM 34.0 °F 29.8 °F 28.0 °F 79% 30.18 in 10.0 mi NNW 4.6 mph - N/A   Clear